Preview of NWS' New Version of Forecast
This preview is not operational and should not be used for support decisions.
Latest weather observations around

Wittman Regional Airport (KOSH)

Using International System of Units (Switch to English Units)
Date/ Time (CDT) Wind (kph) Vis. (km) Weather Sky Cond. Temp (°C) Rel. Humidity Wind Chill (°C) Heat Index (°C) Pressure Precip. (cm)
Air Dwpt 6 hour Altimeter (hPa) Sea level (hPa) 1 hr 3 hr 6 hr
Max Min
Sep 21 01:53 S 8 4.83 Fog/Mist CLR 18 17     93%     1017.6 1016.5      
Sep 21 00:53 S 5 6.44 Fog/Mist CLR 18 17     93%     1018 1016.8      
Sep 20 23:53 S 8 9.66 Fog/Mist CLR 19 17     90%     1018.3 1017.1      
Sep 20 22:53 S 11 11.27 Clear CLR 19 18     90%     1018.6 1017.7      
Sep 20 21:53 SSE 8 12.87 Clear CLR 21 18     87%     1019 1017.9      
Sep 20 20:53 SSE 9 14.48 Clear CLR 22 19     84%   22 1018.6 1017.7      
Sep 20 19:53 SE 9 14.48 Mostly Clear FEW035 23 20     84%   23 1018.6 1017.7      
Sep 20 18:53 Calm 16.09 Clear   23 21     87%   23 1018.3 1017.5      
Sep 20 17:53 ENE 5 16.09 Clear CLR 25 20     74%   25 1018.6 1017.4      
Sep 20 16:53 ENE 11 16.09 Clear   26 21     74%   26 1018.6 1017.6      
Sep 20 15:53 ENE 9 16.09 Partly Cloudy SCT026 26 20     71%   26 1018.6 1017.4      
Sep 20 14:53 E 9 16.09 Mostly Clear FEW027 26 21     74%   26 1018.6 1017.7      
Sep 20 13:53 E 11 16.09 Partly Cloudy SCT022 25 20     74%   25 1019 1017.9      
Sep 20 13:50 E 8 16.09 Partly Cloudy SCT020 25 20     74%   25 1019        
Sep 20 13:42 E 13 16.09 Mostly Cloudy BKN020 26 21     74%   26 1019        
Sep 20 12:53 E 9 16.09 Mostly Clear FEW016 24 20     76%   25 1019.3 1018.4      
Sep 20 11:53 ENE 5 9.66 Haze SCT005 23 19     81%   23 1020 1018.9      
Sep 20 11:26 E 11 6.44 Fog/Mist OVC005 21 19     90%     1020.3        
Sep 20 11:00 E 8 1.61 Fog/Mist OVC003 20 19     96%     1020.7        
Sep 20 10:53 E 5 0.8 Fog OVC002 20 19     96%     1020.7 1019.9      
Sep 20 10:12 E 8 0.8 Cloudy OVC002 20 19     96%     1020.7        
Sep 20 09:53 ESE 8 0.4 Clear VV002 20 19     96%     1020.7 1019.8      
Sep 20 09:36 Calm 0.4 Fog VV002 19 19     100%     1020.7        
Sep 20 08:53 E 8 0.4 Fog VV002 19 19     97%     1020.3 1019.5      
Sep 20 08:16 E 8 0.4 Fog VV002 19 19     100%     1020.3        
Sep 20 08:09 E 5 0.4 Fog VV002 19 18     96%     1020        
Sep 20 08:01 5 0.8 Fog VV002 19 18     96%     1020.3        
Sep 20 07:53 Calm 0.4 Fog VV002 19 18     96%     1020 1019.1      
Sep 20 07:16 Calm 0.4 Fog VV002 17 17     97%     1020        
Sep 20 06:53 Calm 0.4 Fog VV001 17 17     97%     1019.7 1018.9      
Sep 20 06:34 Calm 0.4 Fog VV001 17 17     100%     1020        
Sep 20 05:53 Calm 0.4 Fog VV002 17 16     96%     1019.7 1018.7      
Sep 20 04:53 Calm 0.4 Fog VV002 17 16     96%     1019.3 1018.4      
Sep 20 04:11 Calm 0.4 Fog VV002 16 16     97%     1019.3        
Sep 20 04:01 Calm 0.4 Fog VV002 17 17     100%     1019        
Sep 20 03:53 Calm 0.4 Fog VV002 17 16     96%     1019 1018.1      
Sep 20 03:34 SE 5 0.4 Fog VV003 17 16     96%     1019        
Sep 20 03:26 Calm 0.4 Fog VV003 16 16     100%     1019        
Sep 20 03:20 E 5 1.61 Fog/Mist VV003 16 16     100%     1019.3        
Notice The following observation data may not be complete
Sep 20 03:07   3.22 Fog/Mist FEW003          %              
Sep 20 02:53 Calm 1.21 Fog/Mist VV003 17 16     96%     1019 1018.1      
Sep 20 02:35 Calm 1.21 Fog/Mist VV002 17 16     96%     1019        
Sep 20 02:31 Calm 2.01 Fog/Mist CLR 17 16     93%     1019        
Sep 20 02:22 Calm 1.21 Fog/Mist VV002 17 17     100%     1019        
Sep 20 02:11 Calm 2.82 Fog/Mist CLR 18 17     96%     1019        
Sep 20 01:53 SW 5 8.05 Fog/Mist CLR 18 17     96%     1019 1017.9      
Sep 20 00:53 Calm 9.66 Fog/Mist CLR 18 18     97%     1018.3 1017.5      
Sep 19 23:53 Calm 9.66 Fog/Mist CLR 19 18     93%     1018.3 1017.4      
Sep 19 23:11 Calm 6.44 Fog/Mist CLR 18 17     93%     1018.3        
Sep 19 23:04 Calm 4.02 Fog/Mist CLR 17 17     97%     1018.3        
Sep 19 22:53 Calm 8.05 Fog/Mist CLR 18 17     96%     1018.6 1017.7      
Sep 19 22:50 Calm 6.44 Fog/Mist CLR 18 17     94%     1018.6        
Sep 19 22:38 Calm 4.02 Fog/Mist CLR 17 17     97%     1018.6        
Sep 19 22:29 Calm 2.82 Fog/Mist CLR 18 17     93%     1018.6        
Sep 19 21:53 Calm 16.09 Clear CLR 18 18     97%     1018.6 1017.6      
Sep 19 20:53 Calm 14.48 Clear CLR 19 18     93%     1018 1017.1      
Sep 19 19:53 Calm 16.09 Clear CLR 20 19     93%     1017.6 1016.9      
Sep 19 18:53 Calm 16.09 Mostly Clear FEW100 22 19     82%   23 1017.3 1016.2      
Sep 19 17:53 SSW 9 16.09 Mostly Clear FEW090 23 19     76%   24 1016.9 1016      
Sep 19 16:53 S 13 16.09 Clear CLR 24 19     76%   24 1016.9 1015.8      
Sep 19 15:53 SSE 9 16.09 Mostly Cloudy SCT022 SCT029 BKN060 24 19     74%   24 1016.9 1015.7      
Sep 19 14:53 SSE 15 16.09 Partly Cloudy SCT015 23 19     79%   24 1017.3 1016.1      
Sep 19 14:42 S 17 16.09 Mostly Cloudy BKN015 24 20     79%   24 1017.3        
Sep 19 13:53 SSE 11 16.09 Mostly Clear FEW110 22 19     84%   23 1017.3 1016.3      
Sep 19 13:07 SSE 9 16.09 Mostly Cloudy FEW006 SCT095 BKN110 21 19     90%     1018.3        
Sep 19 12:53 Calm 16.09 Cloudy SCT080 OVC100 21 19     87%     1018.3 1017.2 0   1
Sep 19 12:23 Calm 4.83 Light Rain and Fog/Mist BKN065 BKN080 OVC100 21 19     90%     1018.3   0    
Sep 19 12:14 N 5 2.82 Rain and Fog/Mist FEW050 BKN075 OVC110 20 19     93%     1018.3   0    
Sep 19 11:53 SW 5 6.44 Light Rain and Fog/Mist OVC110 20 19     93%     1019 1018 0    
Sep 19 11:40 Calm 4.83 Light Rain and Fog/Mist OVC110 19 18     93%     1019   0    
Sep 19 11:28 SSW 5 4.02 Rain and Fog/Mist OVC110 19 18     93%     1019.3   0    
Sep 19 11:19 SSW 5 4.83 Rain and Fog/Mist OVC110 19 18     93%     1019.3   0    
Sep 19 11:08 Calm 3.22 Rain and Fog/Mist BKN100 OVC120 19 18     93%     1019.3   0    
Sep 19 10:53 Calm 4.83 Light Rain and Fog/Mist FEW070 BKN095 OVC110 19 18     90%     1019.3 1018.4 0    
Sep 19 10:29 SSW 9 4.83 Light Rain and Fog/Mist SCT022 BKN038 OVC070 19 18     93%     1019.7   0    
Sep 19 09:53 S 9 16.09 Light Rain FEW031 BKN048 OVC060 20 17     84%     1019.7 1018.7 0 0  
Sep 19 09:50 S 9 14.48 Light Rain FEW031 BKN047 OVC060 20 17     83%     1019.7   0    
Sep 19 09:11 SSW 13 16.09 Cloudy OVC050 21 16     75%     1018.6        
Sep 19 08:53 SSW 17 16.09 Cloudy OVC050 21 16     75%     1018.3 1017.2      
Sep 19 08:37 SSW 15 16.09 Cloudy BKN050 BKN070 OVC110 20 16     78%     1018        
Sep 19 07:53 S 18 16.09 Mostly Clear FEW036 20 16     78%     1017.6 1016.4      
Sep 19 06:53 SSW 13 16.09 Mostly Cloudy FEW039 SCT060 BKN120 19 16     79%     1017.3 1016      
Sep 19 05:53 SSW 13 16.09 Mostly Clear FEW041 19 16     79%     1016.3 1015.2      
Sep 19 04:53 S 21 16.09 Clear CLR 20 16     78%     1015.9 1014.8      
Sep 19 03:53 S 24 16.09 Mostly Clear FEW085 21 16     75%     1016.3 1014.9      
Sep 19 02:53 S 17 16.09 Clear CLR 20 17     81%     1016.3 1015.1      
Sep 19 01:53 S 18 16.09 Mostly Cloudy BKN120 20 17     84%     1016.9 1015.8      
Sep 19 00:53 S 21 16.09 Mostly Cloudy BKN110 19 17     87%     1016.9 1015.7      
Sep 18 23:53 S 13 14.48 Clear CLR 19 17     87%     1017.3 1016      
Sep 18 22:53 S 11 14.48 Clear CLR 19 17     87%     1017.6 1016.4      
Sep 18 21:53 S 15 14.48 Clear CLR 20 18     87%     1017.3 1016.3      
Sep 18 20:53 SSE 11 12.87 Clear CLR 21 18     84%     1017.3 1016.3      
Sep 18 19:53 SSE 15 16.09 Clear CLR 22 18     81%   22 1016.6 1015.8      
Sep 18 18:53 SE 13 16.09 Clear CLR 22 19     82%   23 1016.3 1015.4      
Sep 18 17:53 S 13 16.09 Clear CLR 24 17     64%   25 1016.3 1015.2      
Sep 18 16:53 S 13 16.09 Clear CLR 25 18     64%   25 1015.9 1015.1      
Sep 18 15:53 S 21 16.09 Clear CLR 26 17     60%   26 1015.6 1014.5      
Sep 18 14:53 S 22 16.09 Clear CLR 26 17     60%   26 1016.9 1016      
Sep 18 13:53 S 24 16.09 Clear CLR 26 17     58%   26 1017.6 1016.7      
Sep 18 12:53 S 18 16.09 Clear CLR 26 18     62%   26 1019 1017.8      
Sep 18 11:53 S 22 16.09 Clear CLR 24 17     64%   25 1019.3 1018.5      
Notice The following observation data may not be complete
Sep 18 10:53   16.09 Clear CLR          %              
Sep 18 08:53 S 15 11.27 Clear CLR 19 17     84%     1020 1019.1      
Sep 18 07:53 S 9 9.66 Fog/Mist CLR 18 16     87%     1019.7 1018.7      
Sep 18 06:53 S 8 6.44 Fog/Mist CLR 16 14     93%     1018.6 1017.7      
Sep 18 05:53 SSE 9 9.66 Fog/Mist CLR 16 14     93%     1018.3 1017.3      
Sep 18 04:53 SSE 5 11.27 Clear CLR 16 14     90%     1018.6 1017.5      
Sep 18 03:53 SSE 9 12.87 Clear CLR 16 14     90%     1018.6 1017.6      
Sep 18 02:53 SSE 5 16.09 Clear CLR 16 14     90%     1019 1017.8      
Sep 18 01:53 SSE 9 16.09 Clear CLR 16 14     87%     1019.3 1018.2      
Sep 18 00:53 SSE 9 16.09 Clear CLR 16 14     90%     1019.3 1018.3      
Sep 17 23:53 SSE 9 16.09 Clear CLR 16 14     90%     1019.3 1018.3      
May 15 05:53 WNW 13 16.09 Cloudy FEW070 OVC090 15 14     96%     1012.2 1011.7      
May 14 10:53 NE 9 16.09 Clear CLR 18 14     78%     1011.9 1011.3      
May 13 04:53 Calm 16.09 Cloudy OVC025 7 6     93%     1018.3 1018.5      
May 12 07:53 ENE 18 16.09 Clear CLR 8 2     65% 5   1020.3 1020.7      
May 11 20:53 ENE 22 16.09 Cloudy BKN010 OVC016 6 4     89% 2   1017.6 1018.4      
Jun 12 05:53 SSW 15 16.09 Clear CLR 25 18     66%   25 1010.2 1008.2      
Jun 11 15:53 S 24 16.09 Clear CLR 31 20     53%   33 1009.8 1008.2      
Jun 10 17:53 SSW 45 16.09 Clear and Breezy   31 14     35%   30 1002 1000.8      
Notice The following observation data may not be complete
Jun 09 10:04   16.09 Mostly Clear FEW009          %              
Jun 09 06:33 N 11 14.48 Partly Cloudy SCT007 17 15     90%     1008.5        
Jun 08 19:53 SSW 8 16.09 Cloudy SCT070 BKN085 OVC120 24 11     43%   23 1008.8        
Jun 08 06:53 W 8 16.09 Clear CLR 17 7     52%     1016.6 1015.6      
Jun 07 10:53 NW 5 16.09 Clear CLR 23 11     48%   22 1021.3 1020.6      
Jun 05 15:53 ENE 11 16.09 Clear CLR 22 12     53%   22 1014.2